This is the latest recevied weather packets stored in our database for station/object ED1YCC-10. If no packets are shown the sender has not sent any weather packets the latest 10 day(s).
| Time | Temp. | Humidity | Pressure | Rain* | Wind** | Luminosity | Snow |
|---|---|---|---|---|---|---|---|
| 1788270413 | 22.78° C | 44% | 853.5 hPa | - | - | - | - |
| 1788270135 | 22.78° C | 44% | 853.5 hPa | - | - | - | - |
| 1788269044 | 22.22° C | 46% | 853.7 hPa | - | - | - | - |
| 1788268951 | 22.22° C | 46% | 853.7 hPa | - | - | - | - |
| 1788268074 | 21.67° C | 47% | 853.7 hPa | - | - | - | - |
| 1788267735 | 21.67° C | 47% | 853.7 hPa | - | - | - | - |
| 1788266535 | 21.11° C | 49% | 853.8 hPa | - | - | - | - |
| 1788265649 | 21.11° C | 48% | 853.7 hPa | - | - | - | - |
| 1788265334 | 21.11° C | 48% | 853.7 hPa | - | - | - | - |
| 1788264531 | 20.56° C | 49% | 853.9 hPa | - | - | - | - |
| 1788264134 | 20.56° C | 49% | 853.9 hPa | - | - | - | - |
| 1788263041 | 20° C | 49% | 853.8 hPa | - | - | - | - |
| 1788262934 | 20° C | 49% | 853.8 hPa | - | - | - | - |
| 1788261789 | 19.44° C | 51% | 853.9 hPa | - | - | - | - |
| 1788261734 | 19.44° C | 51% | 853.9 hPa | - | - | - | - |
| 1788260595 | 19.44° C | 52% | 854 hPa | - | - | - | - |
| 1788260533 | 19.44° C | 52% | 854 hPa | - | - | - | - |
| 1788259372 | 18.89° C | 54% | 854.1 hPa | - | - | - | - |
| 1788259333 | 18.89° C | 54% | 854.1 hPa | - | - | - | - |
| 1788258132 | 18.33° C | 58% | 854.1 hPa | - | - | - | - |
| 1788257145 | 17.78° C | 59% | 854 hPa | - | - | - | - |
| 1788256932 | 17.78° C | 59% | 854 hPa | - | - | - | - |
| 1788255811 | 17.78° C | 56% | 854 hPa | - | - | - | - |
| 1788255732 | 17.78° C | 56% | 854 hPa | - | - | - | - |
| 1788185755 | 21.67° C | 49% | 854.1 hPa | - | - | - | - |
* Rain since midnight (hover to see other rain measurements)
** Current wind speed in m/s (hover to see current wind gust speed)